Zurück zum Katalog

SL-16 DEB

AktivLEO
NORAD 24301·DEBRIS·🇷🇺 Russia

Gestartet Sep 4, 1996 von Baikonur Cosmodrome

Loading…

Nächste Überflüge (nächste 24 Stunden)

TLE

AktuellSource: Space-Track

Epoche: Sep 14, 2026, 15:49 UTC

1 24301U 96051E   26257.65969119 -.00000017  00000-0  23548-4 0  9994
2 24301  70.9950 335.3577 0205155  49.8616 101.0648 13.72629870503246

Verfolge SL-16 DEB in Echtzeit mit AllMySat

Download on the App Store